| time (UTC) | temp F | wind direction | speed MPH | gust MPH | rain 1hr in | rain 24hr in | rain mn in | humidity % | barometer mb |
| 20260507143014 | 51 | 360 | 12.0 | 18.0 | 0.00 | 0.00 | 0.00 | 57 | 1010.5 |
| 20260507141512 | 50 | 360 | 13.0 | 19.0 | 0.00 | 0.00 | 0.00 | 57 | 1010.5 |
| 20260507140009 | 49 | 360 | 13.0 | 20.0 | 0.00 | 0.00 | 0.00 | 61 | 1010.6 |
| 20260507134504 | 48 | 360 | 11.0 | 15.0 | 0.00 | 0.00 | 0.00 | 65 | 1010.5 |
| 20260507133108 | 46 | 360 | 9.0 | 15.0 | 0.00 | 0.00 | 0.00 | 70 | 1010.5 |
| 20260507131557 | 44 | 360 | 6.0 | 12.0 | 0.00 | 0.00 | 0.00 | 72 | 1010.4 |
| 20260507130050 | 42 | 360 | 4.0 | 11.0 | 0.00 | 0.00 | 0.00 | 76 | 1010.5 |
| 20260507124546 | 41 | 360 | 6.0 | 12.0 | 0.00 | 0.00 | 0.00 | 79 | 1010.5 |
| 20260507123045 | 39 | 360 | 5.0 | 9.0 | 0.00 | 0.00 | 0.00 | 80 | 1010.2 |
| 20260507121539 | 38 | 360 | 7.0 | 11.0 | 0.00 | 0.00 | 0.00 | 81 | 1010.3 |
| 20260507120035 | 38 | 360 | 2.0 | 6.0 | 0.00 | 0.00 | 0.00 | 79 | 1010.3 |
| 20260507114533 | 38 | 360 | 4.0 | 9.0 | 0.00 | 0.00 | 0.00 | 79 | 1010.3 |
| 20260507113031 | 38 | 360 | 5.0 | 10.0 | 0.00 | 0.00 | 0.00 | 79 | 1010.3 |
| 20260507111536 | 38 | 360 | 6.0 | 9.0 | 0.00 | 0.00 | 0.00 | 79 | 1010.4 |
| 20260507110032 | 38 | 360 | 5.0 | 9.0 | 0.00 | 0.00 | 0.00 | 79 | 1010.7 |
| 20260507104529 | 38 | 360 | 3.0 | 5.0 | 0.00 | 0.00 | 0.00 | 76 | 1010.8 |
| 20260507103026 | 38 | 360 | 2.0 | 4.0 | 0.00 | 0.00 | 0.00 | 76 | 1010.9 |
| 20260507101522 | 38 | 360 | 3.0 | 9.0 | 0.00 | 0.00 | 0.00 | 76 | 1011.0 |
| 20260507100023 | 38 | 360 | 5.0 | 9.0 | 0.00 | 0.00 | 0.00 | 75 | 1011.1 |
| 20260507094523 | 38 | 360 | 3.0 | 6.0 | 0.00 | 0.00 | 0.00 | 75 | 1011.1 |
| 20260507093017 | 39 | 360 | 4.0 | 10.0 | 0.00 | 0.00 | 0.00 | 75 | 1011.2 |
| 20260507091515 | 39 | 360 | 7.0 | 12.0 | 0.00 | 0.00 | 0.00 | 74 | 1011.3 |
| 20260507090014 | 40 | 360 | 9.0 | 18.0 | 0.00 | 0.00 | 0.00 | 74 | 1011.3 |
| 20260507084515 | 40 | 360 | 11.0 | 17.0 | 0.00 | 0.00 | 0.00 | 73 | 1011.4 |
| 20260507083010 | 40 | 360 | 15.0 | 22.0 | 0.00 | 0.00 | 0.00 | 72 | 1011.3 |
| 20260507081522 | 41 | 360 | 14.0 | 23.0 | 0.00 | 0.00 | 0.00 | 73 | 1011.5 |
| 20260507080011 | 40 | 360 | 15.0 | 22.0 | 0.00 | 0.00 | 0.00 | 74 | 1011.8 |
| 20260507074504 | 40 | 360 | 13.0 | 22.0 | 0.00 | 0.00 | 0.00 | 74 | 1012.1 |
| 20260507073100 | 40 | 360 | 12.0 | 21.0 | 0.00 | 0.00 | 0.00 | 73 | 1012.5 |
| 20260507071604 | 41 | 360 | 13.0 | 20.0 | 0.00 | 0.00 | 0.00 | 72 | 1012.8 |
| 20260507070056 | 41 | 360 | 13.0 | 22.0 | 0.00 | 0.00 | 0.00 | 71 | 1012.8 |
| 20260507064607 | 42 | 360 | 14.0 | 20.0 | 0.00 | 0.00 | 0.00 | 70 | 1012.7 |
| 20260507063053 | 42 | 360 | 14.0 | 19.0 | 0.00 | 0.00 | 0.00 | 69 | 1012.9 |
| 20260507061545 | 42 | 360 | 12.0 | 20.0 | 0.00 | 0.00 | 0.00 | 69 | 1013.1 |
| 20260507060040 | 42 | 360 | 10.0 | 17.0 | 0.00 | 0.00 | 0.00 | 68 | 1013.2 |
| 20260507054541 | 42 | 360 | 9.0 | 16.0 | 0.00 | 0.00 | 0.00 | 67 | 1013.2 |
| 20260507053036 | 43 | 360 | 10.0 | 15.0 | 0.00 | 0.00 | 0.00 | 66 | 1013.6 |
| 20260507051535 | 43 | 360 | 10.0 | 19.0 | 0.00 | 0.00 | 0.00 | 64 | 1013.7 |
| 20260507050039 | 44 | 360 | 13.0 | 18.0 | 0.00 | 0.00 | 0.00 | 63 | 1013.8 |
| 20260507044534 | 44 | 360 | 11.0 | 16.0 | 0.00 | 0.00 | 0.00 | 62 | 1013.9 |
| 20260507043030 | 44 | 360 | 10.0 | 17.0 | 0.00 | 0.00 | 0.00 | 61 | 1014.2 |
| 20260507041546 | 45 | 360 | 12.0 | 19.0 | 0.00 | 0.00 | 0.00 | 60 | 1014.3 |
| 20260507040028 | 44 | 360 | 12.0 | 18.0 | 0.00 | 0.00 | 0.00 | 60 | 1014.5 |
| 20260507034527 | 44 | 360 | 8.0 | 12.0 | 0.00 | 0.00 | 0.00 | 61 | 1014.8 |
| 20260507033031 | 45 | 360 | 9.0 | 12.0 | 0.00 | 0.00 | 0.00 | 59 | 1014.8 |
| 20260507031526 | 45 | 360 | 8.0 | 14.0 | 0.00 | 0.00 | 0.00 | 58 | 1014.8 |
| 20260507030025 | 46 | 360 | 9.0 | 12.0 | 0.00 | 0.00 | 0.00 | 57 | 1014.8 |
| 20260507024524 | 46 | 360 | 7.0 | 10.0 | 0.00 | 0.00 | 0.00 | 54 | 1014.7 |
| 20260507023025 | 47 | 360 | 6.0 | 10.0 | 0.00 | 0.00 | 0.00 | 52 | 1014.8 |
| 20260507021523 | 49 | 360 | 5.0 | 8.0 | 0.00 | 0.00 | 0.00 | 48 | 1014.7 |
| 20260507020027 | 50 | 360 | 6.0 | 11.0 | 0.00 | 0.00 | 0.00 | 44 | 1014.6 |
| 20260507014544 | 51 | 360 | 6.0 | 13.0 | 0.00 | 0.00 | 0.00 | 42 | 1014.6 |
| 20260507013038 | 52 | 360 | 8.0 | 11.0 | 0.00 | 0.00 | 0.00 | 40 | 1014.6 |
| 20260507011532 | 53 | 360 | 6.0 | 10.0 | 0.00 | 0.00 | 0.00 | 40 | 1014.7 |
| 20260507010019 | 53 | 360 | 9.0 | 13.0 | 0.00 | 0.00 | 0.00 | 37 | 1014.7 |
| 20260507004520 | 54 | 360 | 8.0 | 13.0 | 0.00 | 0.00 | 0.00 | 37 | 1014.8 |
| 20260507003017 | 54 | 360 | 6.0 | 11.0 | 0.00 | 0.00 | 0.00 | 34 | 1014.9 |
| 20260507001514 | 54 | 360 | 7.0 | 12.0 | 0.00 | 0.00 | 0.00 | 34 | 1015.2 |
| 20260507000023 | 55 | 360 | 11.0 | 17.0 | 0.00 | 0.00 | 0.00 | 33 | 1015.3 |
| 20260506234512 | 55 | 360 | 8.0 | 12.0 | 0.00 | 0.00 | 0.00 | 34 | 1015.4 |
| 20260506233011 | 54 | 360 | 9.0 | 14.0 | 0.00 | 0.00 | 0.00 | 35 | 1015.5 |
| 20260506231509 | 55 | 360 | 8.0 | 15.0 | 0.00 | 0.00 | 0.00 | 34 | 1015.6 |
| 20260506230008 | 54 | 360 | 7.0 | 12.0 | 0.00 | 0.00 | 0.00 | 34 | 1015.6 |
| 20260506224508 | 54 | 360 | 8.0 | 14.0 | 0.00 | 0.00 | 0.00 | 35 | 1015.7 |
| 20260506223008 | 55 | 360 | 7.0 | 14.0 | 0.00 | 0.00 | 0.00 | 33 | 1015.9 |
| 20260506221504 | 55 | 360 | 12.0 | 17.0 | 0.00 | 0.00 | 0.00 | 32 | 1016.1 |
| 20260506220004 | 55 | 360 | 10.0 | 17.0 | 0.00 | 0.00 | 0.00 | 33 | 1016.3 |
| 20260506214502 | 55 | 360 | 10.0 | 17.0 | 0.00 | 0.00 | 0.00 | 31 | 1016.5 |
| 20260506213059 | 55 | 360 | 10.0 | 19.0 | 0.00 | 0.00 | 0.00 | 32 | 1016.7 |
| 20260506211559 | 55 | 360 | 12.0 | 18.0 | 0.00 | 0.00 | 0.00 | 33 | 1017.0 |
| 20260506210111 | 54 | 360 | 11.0 | 20.0 | 0.00 | 0.00 | 0.00 | 35 | 1017.4 |
| 20260506204554 | 54 | 360 | 8.0 | 19.0 | 0.00 | 0.00 | 0.00 | 36 | 1017.6 |
| 20260506203055 | 53 | 360 | 8.0 | 18.0 | 0.00 | 0.00 | 0.00 | 36 | 1017.8 |
| 20260506201551 | 53 | 360 | 11.0 | 18.0 | 0.00 | 0.00 | 0.00 | 34 | 1017.8 |
| 20260506200125 | 53 | 360 | 9.0 | 24.0 | 0.00 | 0.00 | 0.00 | 35 | 1018.1 |
| 20260506194547 | 53 | 360 | 8.0 | 16.0 | 0.00 | 0.00 | 0.00 | 32 | 1018.1 |
| 20260506193046 | 52 | 360 | 10.0 | 16.0 | 0.00 | 0.00 | 0.00 | 36 | 1018.2 |
| 20260506191547 | 52 | 360 | 10.0 | 16.0 | 0.00 | 0.00 | 0.00 | 36 | 1018.4 |
| 20260506190045 | 53 | 360 | 5.0 | 16.0 | 0.00 | 0.00 | 0.00 | 39 | 1018.6 |
| 20260506184541 | 52 | 360 | 8.0 | 11.0 | 0.00 | 0.00 | 0.00 | 39 | 1018.7 |
| 20260506183039 | 52 | 360 | 6.0 | 11.0 | 0.00 | 0.00 | 0.00 | 41 | 1018.9 |
| 20260506181539 | 52 | 360 | 4.0 | 13.0 | 0.00 | 0.00 | 0.00 | 45 | 1019.0 |
| 20260506180045 | 50 | 360 | 8.0 | 12.0 | 0.00 | 0.00 | 0.00 | 44 | 1019.3 |
| 20260506174533 | 49 | 360 | 2.0 | 8.0 | 0.00 | 0.00 | 0.00 | 44 | 1019.5 |
| 20260506173032 | 49 | 360 | 4.0 | 10.0 | 0.00 | 0.00 | 0.00 | 45 | 1019.6 |
| 20260506171545 | 49 | 360 | 3.0 | 10.0 | 0.00 | 0.00 | 0.00 | 44 | 1019.6 |
| 20260506170028 | 50 | 360 | 6.0 | 10.0 | 0.00 | 0.00 | 0.00 | 46 | 1019.5 |
| 20260506164526 | 49 | 360 | 5.0 | 12.0 | 0.00 | 0.00 | 0.00 | 48 | 1019.5 |
| 20260506163025 | 48 | 360 | 1.0 | 9.0 | 0.00 | 0.00 | 0.00 | 50 | 1019.5 |
| 20260506161529 | 48 | 360 | 5.0 | 10.0 | 0.00 | 0.00 | 0.00 | 51 | 1019.6 |
| 20260506160017 | 47 | 360 | 3.0 | 8.0 | 0.00 | 0.00 | 0.00 | 54 | 1019.7 |
| 20260506154511 | 46 | 360 | 3.0 | 8.0 | 0.00 | 0.00 | 0.00 | 58 | 1019.6 |
| 20260506153010 | 46 | 360 | 6.0 | 9.0 | 0.00 | 0.00 | 0.00 | 56 | 1019.6 |
| 20260506151505 | 45 | 360 | 6.0 | 10.0 | 0.00 | 0.00 | 0.00 | 57 | 1019.4 |
| 20260506150004 | 44 | 360 | 2.0 | 9.0 | 0.00 | 0.00 | 0.00 | 61 | 1019.5 |
| 20260506144557 | 43 | 360 | 3.0 | 9.0 | 0.00 | 0.00 | 0.00 | 64 | 1019.5 |